• In Kazakhstan
  • List of Countries
  • For 7 days
  • Water Temperature
  • Weather Map
  • News
  • Weather Widgets
  • user-avatar
    Login

    Hourly Weather Kiustendil

    Today, 28 February, Friday

    Time Temperature Precipitation Wind Pressure Humidity
    00:00 -7°C° 0 mm 1 mps 616 mmHg 72%
    01:00 -7°C° 0 mm 1 mps 616 mmHg 71%
    02:00 -7°C° 0 mm 1 mps 616 mmHg 70%
    03:00 -6°C° 0 mm 1 mps 616 mmHg 70%
    04:00 -6°C° 0 mm 1 mps 616 mmHg 70%
    05:00 -6°C° 0 mm 1 mps 616 mmHg 70%
    06:00 -6°C° 0 mm 2 mps 616 mmHg 70%
    07:00 -6°C° 0 mm 2 mps 616 mmHg 70%
    08:00 -5°C° 0 mm 2 mps 616 mmHg 65%
    09:00 -4°C° 0 mm 3 mps 616 mmHg 60%
    10:00 -2°C° 0 mm 3 mps 617 mmHg 55%
    11:00 -1°C° 0 mm 3 mps 616 mmHg 54%
    12:00 -2°C° 0 mm 4 mps 616 mmHg 54%
    13:00 -1°C° 0 mm 4 mps 616 mmHg 53%
    14:00 -3°C° 1.3 mm 4 mps 616 mmHg 65%
    15:00 -4°C° 1.3 mm 4 mps 616 mmHg 77%
    16:00 -7°C° 1.3 mm 4 mps 616 mmHg 90%
    17:00 -7°C° 0.4 mm 3 mps 616 mmHg 88%
    18:00 -7°C° 0.4 mm 3 mps 617 mmHg 86%
    19:00 -8°C° 0.4 mm 3 mps 617 mmHg 84%
    20:00 -8°C° 0.2 mm 3 mps 617 mmHg 86%
    21:00 -9°C° 0.2 mm 3 mps 618 mmHg 88%
    22:00 -9°C° 0.2 mm 3 mps 618 mmHg 90%
    23:00 -9°C° 0.2 mm 3 mps 618 mmHg 90%

    Tomorrow, 29 February, Saturday

    Time Temperature Precipitation Wind Pressure Humidity
    00:00 -9°C° 0.2 mm 3 mps 619 mmHg 90%
    01:00 -9°C° 0.2 mm 3 mps 619 mmHg 90%
    02:00 -9°C° 0.1 mm 3 mps 619 mmHg 90%
    03:00 -10°C° 0.1 mm 3 mps 619 mmHg 89%
    04:00 -10°C° 0.1 mm 3 mps 619 mmHg 89%
    05:00 -10°C° 0 mm 3 mps 620 mmHg 88%
    06:00 -9°C° 0 mm 2 mps 620 mmHg 86%
    07:00 -9°C° 0 mm 2 mps 621 mmHg 85%
    08:00 -7°C° 0 mm 2 mps 621 mmHg 77%
    09:00 -6°C° 0 mm 2 mps 622 mmHg 69%
    10:00 -5°C° 0 mm 2 mps 623 mmHg 61%
    11:00 -4°C° 0 mm 2 mps 623 mmHg 58%
    12:00 -3°C° 0 mm 2 mps 623 mmHg 55%
    13:00 0°C° 0 mm 1 mps 623 mmHg 52%
    14:00 0°C° 0 mm 1 mps 623 mmHg 53%
    15:00 0°C° 0 mm 1 mps 622 mmHg 53%
    16:00 0°C° 0 mm 1 mps 622 mmHg 54%
    17:00 -2°C° 0 mm 1 mps 622 mmHg 59%
    18:00 -3°C° 0 mm 1 mps 621 mmHg 64%
    19:00 -4°C° 0 mm 1 mps 621 mmHg 68%
    20:00 -4°C° 0 mm 1 mps 621 mmHg 66%
    21:00 -4°C° 0 mm 1 mps 621 mmHg 64%
    22:00 -4°C° 0 mm 1 mps 621 mmHg 62%
    23:00 -4°C° 0 mm 1 mps 621 mmHg 62%

    Day after tomorrow, 1 March, Sunday

    Time Temperature Precipitation Wind Pressure Humidity
    00:00 -4°C° 0 mm 1 mps 621 mmHg 61%
    01:00 -4°C° 0 mm 1 mps 621 mmHg 60%
    02:00 -4°C° 0 mm 1 mps 621 mmHg 61%
    03:00 -4°C° 0 mm 1 mps 621 mmHg 63%
    04:00 -6°C° 0 mm 1 mps 620 mmHg 64%
    05:00 -4°C° 0 mm 1 mps 621 mmHg 65%
    06:00 -4°C° 0 mm 1 mps 621 mmHg 66%
    07:00 -4°C° 0 mm 1 mps 621 mmHg 66%
    08:00 -4°C° 0 mm 2 mps 622 mmHg 63%
    09:00 -3°C° 0 mm 2 mps 622 mmHg 60%
    10:00 -1°C° 0 mm 2 mps 623 mmHg 58%
    11:00 +1°C° 0 mm 2 mps 623 mmHg 57%
    12:00 +1°C° 0 mm 2 mps 623 mmHg 56%
    13:00 +2°C° 0 mm 2 mps 622 mmHg 55%
    14:00 +2°C° 0 mm 2 mps 622 mmHg 58%
    15:00 +2°C° 0 mm 2 mps 622 mmHg 60%
    16:00 +2°C° 0 mm 2 mps 621 mmHg 63%
    17:00 -1°C° 0 mm 2 mps 621 mmHg 67%
    18:00 -2°C° 0 mm 2 mps 621 mmHg 72%
    19:00 -1°C° 0 mm 1 mps 621 mmHg 76%
    20:00 -1°C° 0 mm 1 mps 620 mmHg 77%
    21:00 -1°C° 0 mm 1 mps 620 mmHg 78%
    22:00 -2°C° 0 mm 1 mps 620 mmHg 78%
    23:00 -4°C° 0 mm 2 mps 620 mmHg 78%

    2 March, Monday

    Time Temperature Precipitation Wind Pressure Humidity
    00:00 -4°C° 0 mm 2 mps 620 mmHg 77%
    01:00 -4°C° 0 mm 2 mps 620 mmHg 77%
    02:00 -4°C° 0 mm 2 mps 619 mmHg 77%
    03:00 -4°C° 0 mm 2 mps 619 mmHg 77%
    04:00 -4°C° 0 mm 2 mps 618 mmHg 78%
    05:00 -3°C° 0 mm 2 mps 618 mmHg 78%
    06:00 -3°C° 0 mm 2 mps 618 mmHg 78%
    07:00 -3°C° 0 mm 2 mps 618 mmHg 79%
    08:00 -2°C° 0 mm 2 mps 618 mmHg 79%
    09:00 -1°C° 0 mm 2 mps 618 mmHg 80%
    10:00 0°C° 0 mm 3 mps 619 mmHg 81%
    11:00 0°C° 0.1 mm 3 mps 619 mmHg 80%
    12:00 +1°C° 0.1 mm 3 mps 618 mmHg 80%
    13:00 +2°C° 0.1 mm 3 mps 618 mmHg 79%
    14:00 +2°C° 0.2 mm 3 mps 619 mmHg 78%
    15:00 +2°C° 0.2 mm 3 mps 619 mmHg 76%
    16:00 +3°C° 0.2 mm 3 mps 619 mmHg 75%
    17:00 +1°C° 0 mm 3 mps 619 mmHg 79%
    18:00 +1°C° 0 mm 2 mps 619 mmHg 83%
    19:00 -1°C° 0 mm 2 mps 619 mmHg 87%
    20:00 -2°C° 0 mm 2 mps 619 mmHg 86%
    21:00 -2°C° 0 mm 2 mps 618 mmHg 85%
    22:00 -2°C° 0 mm 2 mps 618 mmHg 85%
    23:00 -2°C° 0 mm 2 mps 619 mmHg 84%

    3 March, Tuesday

    Time Temperature Precipitation Wind Pressure Humidity
    00:00 -2°C° 0 mm 2 mps 619 mmHg 83%
    01:00 -1°C° 0 mm 2 mps 619 mmHg 83%
    02:00 -2°C° 0 mm 2 mps 618 mmHg 85%
    03:00 -2°C° 0 mm 2 mps 618 mmHg 87%
    04:00 -2°C° 0 mm 2 mps 617 mmHg 89%
    05:00 -2°C° 0 mm 2 mps 617 mmHg 88%
    06:00 -2°C° 0 mm 2 mps 617 mmHg 88%
    07:00 -1°C° 0 mm 2 mps 617 mmHg 88%
    08:00 +1°C° 0 mm 3 mps 618 mmHg 81%
    09:00 +1°C° 0 mm 4 mps 618 mmHg 75%
    10:00 +3°C° 0 mm 5 mps 619 mmHg 68%
    11:00 +4°C° 0 mm 6 mps 618 mmHg 67%
    12:00 +4°C° 0 mm 6 mps 618 mmHg 65%
    13:00 +4°C° 0 mm 6 mps 618 mmHg 64%
    14:00 +4°C° 0.1 mm 6 mps 617 mmHg 68%
    15:00 +3°C° 0.1 mm 5 mps 617 mmHg 72%
    16:00 +3°C° 0.1 mm 5 mps 616 mmHg 76%
    17:00 +3°C° 0.2 mm 4 mps 616 mmHg 79%
    18:00 +3°C° 0.2 mm 4 mps 616 mmHg 83%
    19:00 +2°C° 0.2 mm 3 mps 615 mmHg 86%
    20:00 +2°C° 0.2 mm 3 mps 615 mmHg 87%
    21:00 +2°C° 0.2 mm 3 mps 615 mmHg 88%
    22:00 +1°C° 0.2 mm 3 mps 615 mmHg 89%
    23:00 +1°C° 0 mm 3 mps 614 mmHg 88%

    4 March, Wednesday

    Time Temperature Precipitation Wind Pressure Humidity
    00:00 +1°C° 0 mm 3 mps 614 mmHg 87%
    01:00 +1°C° 0 mm 3 mps 613 mmHg 87%
    02:00 +1°C° 0.2 mm 3 mps 613 mmHg 88%
    03:00 +1°C° 0.2 mm 3 mps 613 mmHg 89%
    04:00 +1°C° 0.2 mm 3 mps 612 mmHg 91%
    05:00 +1°C° 0.4 mm 3 mps 612 mmHg 91%
    06:00 0°C° 0.4 mm 3 mps 612 mmHg 92%
    07:00 +1°C° 0.4 mm 2 mps 612 mmHg 93%
    08:00 +1°C° 0.5 mm 3 mps 613 mmHg 85%
    09:00 +2°C° 0.5 mm 3 mps 614 mmHg 77%
    10:00 +3°C° 0.5 mm 4 mps 614 mmHg 69%
    11:00 +4°C° 0.2 mm 4 mps 615 mmHg 65%
    12:00 +5°C° 0.2 mm 4 mps 615 mmHg 61%
    13:00 +5°C° 0.2 mm 4 mps 615 mmHg 57%
    14:00 +5°C° 0.3 mm 3 mps 615 mmHg 58%
    15:00 +5°C° 0.3 mm 2 mps 614 mmHg 60%
    16:00 +5°C° 0.3 mm 2 mps 614 mmHg 62%
    17:00 +4°C° 0.2 mm 2 mps 614 mmHg 67%
    18:00 +3°C° 0.2 mm 2 mps 614 mmHg 72%
    19:00 +2°C° 0.2 mm 2 mps 614 mmHg 77%
    20:00 +1°C° 0.4 mm 2 mps 615 mmHg 80%
    21:00 +2°C° 0.4 mm 1 mps 615 mmHg 84%
    22:00 +1°C° 0.4 mm 1 mps 615 mmHg 87%
    23:00 -2°C° 1.3 mm 2 mps 615 mmHg 89%
    Show more